CW3518 Weather Reports


time (UTC)temp
C
wind
direction
speed
KPH
gust
KPH
rain 1hr
cm
rain 24hr
cm
rain mn
cm
humidity
%
barometer
mb
20260509024526 21 98 17.7 22.5 0.00 1.07 1.07 88 1010.3
20260509024026 20 77 12.9 22.5 0.00 1.07 1.07 88 1010.4
20260509023526 20 43 19.3 22.5 0.00 1.07 1.07 89 1010.4
20260509023026 20 48 14.5 17.7 0.00 1.07 1.07 90 1010.4
20260509022527 20 38 12.9 17.7 0.00 1.07 1.07 90 1010.3
20260509022026 20 39 12.9 17.7 0.00 1.07 1.07 90 1010.0
20260509021526 20 39 11.3 17.7 0.00 1.07 1.07 88 1009.6
20260509021026 20 97 14.5 17.7 0.00 1.07 1.07 88 1008.9
20260509020526 21 116 14.5 17.7 0.00 1.07 1.07 87 1008.6
20260509020026 21 136 14.5 17.7 0.00 1.07 1.07 87 1008.4
20260509015527 21 0 0.0 19.3 0.00 1.07 1.07 86 1008.1
20260509015026 21 0 0.0 19.3 0.00 1.07 1.07 86 1008.0
20260509014526 21 146 17.7 19.3 0.00 1.07 1.07 85 1008.0
20260509014026 21 136 16.1 19.3 0.00 1.07 1.07 84 1008.1
20260509013526 21 157 14.5 19.3 0.00 1.07 1.07 83 1008.1
20260509013026 21 0 0.0 17.7 0.00 1.07 1.07 83 1008.1
20260509012026 21 181 14.5 17.7 0.00 1.07 1.07 81 1008.1
20260509011526 22 188 16.1 17.7 0.00 1.07 1.07 80 1008.3
20260509011026 22 178 14.5 17.7 0.00 1.07 1.07 80 1008.5
20260509010526 22 167 8.0 17.7 0.00 1.07 1.07 79 1008.5
20260509010026 22 166 9.7 14.5 0.00 1.07 1.07 79 1008.5
20260509005526 22 178 8.0 14.5 0.00 1.07 1.07 79 1008.6
20260509004526 22 197 14.5 16.1 0.00 1.07 1.07 78 1008.7
20260509003526 22 200 11.3 17.7 0.00 1.07 1.07 77 1008.6
20260509003026 22 173 17.7 17.7 0.00 1.07 1.07 76 1008.5
20260509002526 23 170 12.9 17.7 0.00 1.07 1.07 75 1008.4
20260509002026 23 172 12.9 17.7 0.00 1.07 1.07 75 1008.4
20260509001526 23 170 12.9 17.7 0.00 1.07 1.07 74 1008.4
20260509001027 23 197 16.1 17.7 0.00 1.07 1.07 74 1008.3
20260509000526 23 195 14.5 17.7 0.00 1.07 1.07 73 1008.2
20260509000026 23 157 17.7 19.3 0.00 1.07 1.07 72 1008.1
20260508235026 23 177 19.3 22.5 0.00 1.07 1.07 71 1008.0
20260508234526 23 180 17.7 22.5 0.00 1.07 1.07 70 1008.0
20260508234026 23 188 17.7 22.5 0.00 1.07 1.07 69 1008.0
20260508233526 23 179 16.1 22.5 0.00 1.07 1.07 69 1008.2
20260508232526 23 160 12.9 20.9 0.00 1.07 1.07 69 1008.3
20260508232027 24 175 17.7 20.9 0.00 1.07 1.07 68 1008.4
20260508231526 24 171 17.7 20.9 0.00 1.07 1.07 67 1008.4
20260508231026 24 143 11.3 19.3 0.00 1.07 1.07 68 1008.4
20260508230526 24 203 12.9 19.3 0.00 1.07 1.07 68 1008.4
20260508230026 24 201 16.1 19.3 0.00 1.07 1.07 68 1008.5
20260508225526 24 169 11.3 20.9 0.00 1.07 1.07 67 1008.5
20260508225026 24 188 16.1 20.9 0.00 1.07 1.07 68 1008.5
20260508224526 24 191 14.5 20.9 0.00 1.07 1.07 68 1008.5
20260508224026 24 169 9.7 20.9 0.00 1.07 1.07 68 1008.5
20260508223026 25 184 11.3 20.9 0.00 1.07 1.07 69 1008.6
20260508222526 24 169 17.7 20.9 0.00 1.07 1.07 68 1008.5
20260508222026 24 174 14.5 19.3 0.00 1.07 1.07 67 1008.5
20260508221527 25 166 17.7 20.9 0.00 1.07 1.07 66 1008.5
20260508220526 25 164 14.5 19.3 0.00 1.07 1.07 66 1008.6
20260508220026 25 176 14.5 19.3 0.00 1.07 1.07 66 1008.5
20260508215528 25 202 17.7 20.9 0.00 1.07 1.07 67 1008.6
20260508215026 25 177 19.3 20.9 0.00 1.07 1.07 65 1008.5
20260508214527 25 149 17.7 19.3 0.00 1.07 1.07 65 1008.6
20260508213526 25 155 16.1 20.9 0.00 1.07 1.07 65 1008.7
20260508213026 24 143 16.1 20.9 0.00 1.07 1.07 66 1008.8
20260508212526 24 175 14.5 20.9 0.00 1.07 1.07 65 1008.9
20260508212027 24 159 17.7 20.9 0.00 1.07 1.07 65 1008.9
20260508211026 24 166 14.5 20.9 0.00 1.07 1.07 66 1008.9
20260508210526 24 154 17.7 19.3 0.00 1.07 1.07 65 1009.0
20260508210026 24 213 11.3 20.9 0.00 1.07 1.07 66 1009.0
20260508205527 23 172 17.7 22.5 0.00 1.07 1.07 65 1009.1
20260508205026 24 195 14.5 22.5 0.00 1.07 1.07 67 1009.2
20260508204526 24 179 16.1 29.0 0.00 1.07 1.07 65 1009.4
20260508204026 23 217 20.9 30.6 0.00 1.07 1.07 67 1009.6
20260508203526 23 214 22.5 30.6 0.00 1.07 1.07 67 1009.5
20260508203026 23 219 25.7 29.0 0.00 1.07 1.07 67 1009.7
20260508202526 23 193 19.3 29.0 0.00 1.07 1.07 67 1009.9
20260508202026 23 197 22.5 25.7 0.00 1.07 1.07 67 1009.8
20260508201526 24 203 24.1 24.1 0.00 1.07 1.07 67 1010.0
20260508201027 24 0 0.0 22.5 0.00 1.07 1.07 67 1010.2
20260508200026 24 213 22.5 22.5 0.00 1.07 1.07 64 1010.4
20260508195527 24 160 12.9 17.7 0.00 1.07 1.07 65 1010.3
20260508195026 24 0 0.0 17.7 0.00 1.07 1.07 65 1010.4
20260508194527 23 155 14.5 16.1 0.00 1.07 1.07 66 1010.5
20260508194027 23 194 11.3 17.7 0.00 1.07 1.07 67 1010.7
20260508193526 23 172 14.5 17.7 0.00 1.07 1.07 67 1010.8
20260508193026 23 146 14.5 17.7 0.00 1.07 1.07 68 1010.9
20260508192527 23 202 11.3 22.5 0.00 1.07 1.07 69 1010.9
20260508192026 23 205 12.9 24.1 0.00 1.07 1.07 69 1010.9
20260508191527 23 217 17.7 24.1 0.00 1.07 1.07 67 1010.9
20260508191026 23 223 11.3 22.5 0.00 1.07 1.07 65 1010.9
20260508190526 23 228 14.5 17.7 0.00 1.07 1.07 65 1010.9
20260508190027 23 178 14.5 17.7 0.00 1.07 1.07 64 1010.9
20260508185526 23 180 16.1 20.9 0.00 1.07 1.07 66 1010.9
20260508185026 23 202 12.9 22.5 0.00 1.07 1.07 66 1011.1
20260508184526 23 156 16.1 22.5 0.00 1.07 1.07 65 1011.1
20260508184026 23 0 0.0 17.7 0.00 1.07 1.07 66 1011.2
20260508183527 23 139 6.4 17.7 0.00 1.07 1.07 65 1011.2
20260508183026 23 0 0.0 17.7 0.00 1.07 1.07 64 1011.1
20260508182526 23 133 14.5 19.3 0.00 1.07 1.07 67 1011.2
20260508182026 23 0 0.0 19.3 0.00 1.07 1.07 65 1011.3
20260508181526 23 0 0.0 20.9 0.00 1.07 1.07 65 1011.4
20260508180026 22 168 11.3 16.1 0.00 1.07 1.07 67 1011.8
20260508175526 22 212 14.5 16.1 0.00 1.07 1.07 67 1012.0
20260508175026 22 239 9.7 20.9 0.00 1.07 1.07 68 1012.0
20260508174526 22 161 8.0 20.9 0.00 1.07 1.07 68 1012.1
20260508174026 22 133 16.1 16.1 0.00 1.07 1.07 68 1012.3
20260508173527 22 220 14.5 16.1 0.00 1.07 1.07 69 1012.4
20260508173027 21 131 16.1 17.7 0.00 1.07 1.07 69 1012.4
20260508172526 22 199 8.0 17.7 0.00 1.07 1.07 70 1012.5
20260508172026 21 149 8.0 14.5 0.00 1.07 1.07 69 1012.5
20260508171526 21 131 9.7 12.9 0.00 1.07 1.07 74 1012.7
20260508171026 21 0 0.0 19.3 0.00 1.07 1.07 70 1012.6
20260508170527 20 209 9.7 19.3 0.00 1.07 1.07 72 1012.9
20260508170026 20 196 11.3 19.3 0.00 1.07 1.07 73 1012.7
20260508165526 20 0 0.0 16.1 0.00 1.07 1.07 71 1013.0
20260508165026 20 187 12.9 16.1 0.00 1.07 1.07 69 1013.1
20260508164526 20 157 9.7 17.7 0.00 1.07 1.07 70 1013.2
20260508164027 20 147 8.0 17.7 0.00 1.07 1.07 70 1013.2
20260508163527 20 0 0.0 17.7 0.00 1.07 1.07 68 1013.3
20260508163026 20 198 9.7 17.7 0.00 1.07 1.07 69 1013.3
20260508162526 20 162 11.3 17.7 0.00 1.07 1.07 67 1013.5
20260508162026 20 195 11.3 14.5 0.00 1.07 1.07 66 1013.5
20260508161026 20 0 0.0 16.1 0.00 1.07 1.07 67 1013.5
20260508160026 19 166 14.5 14.5 0.00 1.07 1.07 71 1013.6
20260508155526 18 0 0.0 14.5 0.00 1.07 1.07 71 1013.7
20260508155026 18 155 11.3 14.5 0.00 1.07 1.07 71 1013.8
20260508154527 18 141 12.9 14.5 0.00 1.07 1.07 71 1013.9
20260508154027 18 181 9.7 16.1 0.00 1.07 1.07 72 1014.0
20260508153026 19 163 12.9 16.1 0.00 1.07 1.07 68 1014.0
20260508152526 19 175 9.7 12.9 0.00 1.07 1.07 68 1014.2
20260508152026 18 193 6.4 14.5 0.00 1.07 1.07 73 1014.4
20260508151526 18 0 0.0 16.1 0.00 1.07 1.07 73 1014.4
20260508151026 18 124 6.4 17.7 0.00 1.07 1.07 77 1014.5
20260508150527 18 159 9.7 17.7 0.00 1.07 1.07 77 1014.5
20260508150026 18 146 11.3 14.5 0.00 1.07 1.07 76 1014.5
20260508145526 18 163 11.3 19.3 0.00 1.07 1.07 80 1014.5
20260508145026 18 0 0.0 19.3 0.00 1.07 1.07 79 1014.4
20260508144526 18 0 0.0 22.5 0.00 1.07 1.07 81 1014.5
20260508143526 17 0 0.0 19.3 0.00 1.07 1.07 80 1014.5
20260508143027 17 122 9.7 17.7 0.00 1.07 1.07 82 1014.5
20260508142526 17 0 0.0 16.1 0.00 1.07 1.07 80 1014.5
20260508141526 17 0 0.0 12.9 0.00 1.07 1.07 84 1014.6
20260508141026 17 0 0.0 14.5 0.00 1.07 1.07 86 1014.7
20260508140027 16 159 11.3 16.1 0.00 1.07 1.07 88 1014.7
20260508135527 16 150 12.9 16.1 0.00 1.07 1.07 87 1014.8
20260508135026 16 182 11.3 14.5 0.00 1.07 1.07 88 1014.9
20260508134026 16 0 0.0 16.1 0.00 1.07 1.07 89 1014.7
20260508133526 16 105 14.5 16.1 0.00 1.07 1.07 91 1014.8
20260508132526 16 98 11.3 16.1 0.00 1.07 1.07 92 1015.0
20260508131526 16 80 4.8 16.1 0.00 1.07 1.07 93 1015.0
20260508131026 15 104 12.9 16.1 0.00 1.07 1.07 92 1015.0
20260508130527 15 113 8.0 11.3 0.00 1.07 1.07 93 1014.9
20260508130027 15 128 8.0 9.7 0.00 1.07 1.07 93 1015.0
20260508125027 15 175 8.0 9.7 0.00 1.07 1.07 94 1014.9
20260508124527 15 161 6.4 14.5 0.13 1.07 1.07 94 1014.8
20260508124027 15 175 8.0 17.7 0.25 1.07 1.07 94 1014.6
20260508123026 15 138 14.5 17.7 0.53 1.07 1.07 95 1014.4
20260508122526 15 127 16.1 17.7 0.76 1.07 1.07 95 1014.4
20260508122027 15 133 14.5 16.1 0.89 1.07 1.07 95 1014.5
20260508120527 15 0 0.0 12.9 0.91 1.07 1.07 95 1014.5
20260508120027 15 0 0.0 19.3 0.91 1.07 1.07 96 1014.6
20260508115527 15 165 8.0 19.3 0.91 1.07 1.07 97 1014.5
20260508115026 15 144 12.9 17.7 0.91 1.07 1.07 97 1014.4
20260508114027 15 157 9.7 17.7 0.66 0.81 0.81 96 1014.7
20260508113527 15 225 12.9 19.3 0.38 0.53 0.53 95 1015.2
20260508113027 15 189 11.3 19.3 0.38 0.53 0.53 95 1014.7
20260508112527 15 194 19.3 19.3 0.15 0.30 0.30 93 1014.5
20260508112026 15 210 14.5 17.7 0.03 0.18 0.18 91 1014.5
20260508111527 15 168 12.9 17.7 0.00 0.15 0.15 89 1014.4
20260508111027 15 221 14.5 17.7 0.00 0.15 0.15 89 1014.9
20260508105026 15 187 6.4 14.5 0.00 0.15 0.15 89 1014.1
20260508104027 15 140 11.3 17.7 0.15 0.15 0.15 89 1013.7
20260508103527 15 127 6.4 11.3 0.15 0.15 0.15 91 1014.0
20260508103027 15 182 8.0 11.3 0.15 0.15 0.15 91 1014.2
20260508102527 15 194 6.4 11.3 0.15 0.15 0.15 90 1014.1
20260508102026 15 196 6.4 11.3 0.15 0.15 0.15 90 1014.1
20260508101527 15 167 6.4 12.9 0.15 0.15 0.15 90 1014.0
20260508101026 15 138 8.0 12.9 0.15 0.15 0.15 90 1013.9
20260508100527 15 126 8.0 11.3 0.15 0.15 0.15 90 1014.1
20260508100027 15 203 9.7 12.9 0.15 0.15 0.15 89 1014.4
20260508095527 15 183 8.0 12.9 0.15 0.15 0.15 89 1014.2
20260508094527 15 235 11.3 11.3 0.00 0.00 0.00 84 1014.6
20260508094027 15 187 3.2 4.8 0.00 0.00 0.00 84 1014.3
20260508093527 15 91 3.2 4.8 0.00 0.00 0.00 83 1014.1
20260508093027 15 144 3.2 8.0 0.00 0.00 0.00 83 1014.1
20260508092527 15 201 1.6 8.0 0.00 0.00 0.00 83 1014.2
20260508092026 15 138 8.0 8.0 0.00 0.00 0.00 83 1014.1
20260508091527 15 177 6.4 11.3 0.00 0.00 0.00 83 1014.1
20260508091027 15 208 8.0 11.3 0.00 0.00 0.00 83 1014.1
20260508090028 15 190 6.4 16.1 0.00 0.00 0.00 83 1013.9
20260508085027 15 152 8.0 14.5 0.00 0.00 0.00 83 1013.8
20260508084526 15 139 8.0 9.7 0.00 0.00 0.00 83 1013.9
20260508083027 16 169 8.0 11.3 0.00 0.00 0.00 80 1014.2
20260508082527 16 170 6.4 9.7 0.00 0.00 0.00 78 1014.3
20260508082027 16 135 6.4 9.7 0.00 0.00 0.00 77 1014.3
20260508081527 16 148 8.0 9.7 0.00 0.00 0.00 77 1014.4
20260508081026 16 157 8.0 8.0 0.00 0.00 0.00 78 1014.5
20260508080527 16 143 8.0 8.0 0.00 0.00 0.00 79 1014.4
20260508080027 15 161 6.4 9.7 0.00 0.00 0.00 79 1014.5
20260508075527 15 158 6.4 9.7 0.00 0.00 0.00 81 1014.7
20260508074527 15 228 8.0 9.7 0.00 0.00 0.00 79 1014.9
20260508073527 15 196 6.4 11.3 0.00 0.00 0.00 80 1014.9
20260508073027 15 182 6.4 11.3 0.00 0.00 0.00 79 1015.1
20260508072527 15 203 9.7 12.9 0.00 0.00 0.00 81 1015.4
20260508072027 15 205 8.0 14.5 0.00 0.00 0.00 83 1015.5
20260508071527 15 222 11.3 14.5 0.00 0.00 0.00 85 1015.7
20260508071026 15 230 14.5 14.5 0.00 0.00 0.00 84 1015.7
20260508070527 15 244 11.3 12.9 0.00 0.00 0.00 83 1015.6
20260508070026 15 232 4.8 6.4 0.00 0.00 0.00 82 1015.4
20260508065527 15 235 6.4 9.7 0.00 0.00 0.00 82 1015.5
20260508065027 15 197 3.2 11.3 0.00 0.00 0.00 82 1015.3
20260508064527 15 219 8.0 11.3 0.00 0.00 0.00 81 1015.7
20260508064027 15 220 9.7 9.7 0.00 0.00 0.00 81 1015.8
20260508063027 15 229 6.4 8.0 0.00 0.00 0.00 81 1015.8
20260508062527 15 230 8.0 8.0 0.00 0.00 0.00 80 1016.0
20260508062027 15 217 6.4 6.4 0.00 0.00 0.00 80 1015.9
20260508061527 15 199 3.2 9.7 0.00 0.00 0.00 80 1015.8
20260508061027 15 180 4.8 9.7 0.00 0.00 0.00 81 1015.9
20260508060527 15 146 8.0 9.7 0.00 0.00 0.00 81 1016.0
20260508060028 15 165 4.8 6.4 0.00 0.00 0.00 81 1016.1
20260508055027 15 166 1.6 3.2 0.00 0.00 0.00 81 1016.1
20260508054527 15 195 1.6 3.2 0.00 0.00 0.00 81 1016.1
20260508054027 15 122 3.2 4.8 0.00 0.00 0.00 81 1016.0
20260508053527 15 103 1.6 4.8 0.00 0.00 0.00 81 1016.0
20260508052527 16 136 4.8 4.8 0.00 0.00 0.00 77 1015.8
20260508052027 16 173 4.8 4.8 0.00 0.00 0.00 77 1015.8
20260508050527 16 236 6.4 6.4 0.00 0.00 0.00 77 1015.8
20260508045027 16 221 8.0 8.0 0.00 0.00 0.00 78 1016.0
20260508044527 16 220 8.0 8.0 0.00 0.00 0.00 78 1016.0
20260508044027 16 244 6.4 9.7 0.00 0.00 0.00 77 1016.1
20260508043027 16 233 8.0 9.7 0.00 0.00 0.00 75 1016.0
20260508042527 16 234 6.4 8.0 0.00 0.00 0.00 75 1015.8
20260508042027 16 217 6.4 8.0 0.00 0.00 0.00 75 1015.9
20260508041527 16 197 6.4 8.0 0.00 0.00 0.00 75 1015.8
20260508041027 16 216 6.4 8.0 0.00 0.00 0.00 75 1015.8
20260508040027 16 186 6.4 8.0 0.00 0.00 0.00 76 1016.0
20260508035527 16 202 4.8 8.0 0.00 0.00 0.00 75 1016.0
20260508035027 16 192 6.4 8.0 0.00 0.00 0.00 74 1015.8
20260508034527 16 203 8.0 8.0 0.00 0.00 0.00 74 1015.8
20260508034027 16 151 6.4 8.0 0.00 0.00 0.00 74 1015.7
20260508033027 16 168 6.4 8.0 0.00 0.00 0.00 73 1015.7
20260508032527 16 148 8.0 8.0 0.00 0.00 0.00 73 1015.6
20260508032027 17 162 6.4 9.7 0.00 0.00 0.00 72 1015.6
20260508031527 17 149 8.0 9.7 0.00 0.00 0.00 72 1015.7
20260508031027 17 134 9.7 9.7 0.00 0.00 0.00 72 1015.5
20260508030527 17 130 9.7 11.3 0.00 0.00 0.00 71 1015.6
20260508030027 17 138 8.0 11.3 0.00 0.00 0.00 70 1015.5
20260508025527 17 140 8.0 9.7 0.00 0.00 0.00 70 1015.3
20260508025028 17 142 4.8 9.7 0.00 0.00 0.00 70 1015.3